Miscellaneous Local Product
Issued by NWS North Platte, NE

Home | Current Version | Previous Version | Text Only | Print | Product List | Glossary On
Versions: 1 2 3 4 5 6 7 8 9 10 11 12 13 14 15 16 17 18 19 20 21 22 23 24 25 26 27 28 29 30 31 32 33 34 35 36 37 38 39 40 41 42 43 44 45 46 47 48 49 50
618
AXUS43 KLBF 271410
MISLBF


WESTERN AND NORTH CENTRAL NEBRASKA HOURLY WEATHER ROUNDUP
NATIONAL WEATHER SERVICE NORTH PLATTE NE
900 AM CDT WED APR 27 2016

NOTE: "FAIR" INDICATES FEW OR NO CLOUDS BELOW 12,000 FEET WITH NO
SIGNIFICANT WEATHER AND/OR OBSTRUCTIONS TO VISIBILITY.

NOTE: STATIONS NOT REPORTING VARIABLES SUCH AS SKY/WEATHER OR
PRESSURE ARE PROVIDED BY RAWS AND APRS NETWORKS AND ARE NOT UNDER
NATIONAL WEATHER SERVICE QUALITY CONTROL.

...OBSERVATIONS IN AND NEAR THE EASTERN PANHANDLE OF NEBRASKA...

CITY           SKY/WX    TMP DP  RH WIND       PRES   REMARKS
PINE RIDGE     MIX PCPN  37  34  89 N10       29.78F WCI  30
CHADRON        CLOUDY    38  35  89 N15       29.82S FOG     WCI  29
ALLIANCE       CLOUDY    37  34  89 NW21      29.74F WCI  26
SIDNEY         CLOUDY    34  30  85 NW22G32   29.76S WCI  22
CRESCENT LAKE    N/A     36  34  93 N18G28      N/A  WCI  26
BIG SPRINGS      N/A     37  34  89 NW8         N/A  WCI  31
$$

...OBSERVATIONS IN NORTHERN NEBRASKA AND FAR SOUTHERN SOUTH DAKOTA...

CITY           SKY/WX    TMP DP  RH WIND       PRES   REMARKS
WINNER         HVY RAIN  43  40  89 N16       29.69R FOG
VALENTINE      LGT RAIN  37  34  89 N17G29    29.65F WCI  27
THEDFORD       RAIN      38  37  94 N18G28    29.62S WCI  29
AINSWORTH      RAIN      40  39  97 N22G31    29.63R WCI  30
O`NEILL        RAIN      44  42  95 NE14      29.55F
ORD            RAIN      47  45  93 N17G24    29.46S FOG
BROKEN BOW     RAIN      42  42 100 N33G44    29.51F FOG
VALENTINE NWR    N/A     37  36  97 N17G26      N/A  WCI  27
BUTTE            N/A     41  40  96 NE12G18     N/A
HALSEY           N/A     39  38  97 NW13G25     N/A  WCI  31
CHAMBERS         N/A     44  43  98 N10         N/A
EWING            N/A     43  42  95 NE15G24     N/A
$$

...OBSERVATIONS IN SOUTHWEST NEBRASKA AND FAR NORTHEAST COLORADO...

CITY           SKY/WX    TMP DP  RH WIND       PRES   REMARKS
IMPERIAL       CLOUDY    39  33  79 NW24G32   29.68F WCI  28
OGALLALA       CLOUDY    41  34  76 NW25G37   29.67F
NORTH PLATTE   LGT RAIN  41  39  93 NW16      29.60S
MCCOOK         CLOUDY    44  38  79 NW18G29   29.63S
LEXINGTON      LGT RAIN  44  40  87 NW24G33   29.53S
STAPLETON        N/A     37  35  94 SW3G14      N/A
GOTHENBURG       N/A     42  40  91 NW12        N/A
CALLAWAY         N/A     41  39  92 N20         N/A
$$

...OBSERVATIONS IN CENTRAL LINCOLN COUNTY AREA...

CITY           SKY/WX    TMP DP  RH WIND       PRES   REMARKS
N.P. AIRPORT   LGT RAIN  41  39  93 NW16      29.60S
N.P. DOWNTOWN    N/A     40  38  93 NW12G23     N/A  WCI  33
N.P. SOUTHEAST   N/A     40  38  91 N10G20      N/A  WCI  33
N.P. HILLCREST   N/A     40  39  97 NW20G26     N/A  WCI  30
$$

...SOME OBSERVATIONS FROM AROUND THE REGION...

CITY           SKY/WX    TMP DP  RH WIND       PRES   REMARKS
DENVER         MOSUNNY   34  27  75 E8        29.77R WCI  27
LARAMIE        FOG       21  19  92 NW8       29.80F VSB<1/4 WCI  11
CHEYENNE       SUNNY     28  21  75 N17G29    29.78R WCI  16
SCOTTSBLUFF    CLOUDY    36  30  79 NW18      29.81S WCI  26
RAPID CITY     LGT RAIN  36  35  96 N16       29.84R WCI  26
BISMARCK       LGT RAIN  41  38  89 NE10      29.93R
PIERRE         LGT RAIN  41  40  96 N17       29.73F
SIOUX FALLS    HVY RAIN  39  35  86 E21G32    29.66F FOG     WCI  29
OMAHA          LGT RAIN  51  49  92 E22       29.53F FOG
GRAND ISLAND   CLOUDY    50  48  93 SW9       29.39F
KANSAS CITY    CLOUDY    60  56  86 S8        29.55S
WICHITA        PTSUNNY   57  51  80 NW10      29.56R
OKLAHOMA CITY  MOSUNNY   60  56  86 SW10      29.64R
DALLAS         MOSUNNY   66  60  81 SW10      29.66S
AMARILLO       SUNNY     50  36  58 NW18      29.78S
DODGE CITY     LGT RAIN  43  37  79 NW22G32   29.70R
HAYS           CLOUDY    46  36  66 NW17G24   29.60R
GOODLAND       CLOUDY    37  32  82 NW22G32   29.69F WCI  26
$$




USA.gov is the U.S. government's official web portal to all federal, state and local government web resources and services.